TimeEDT,TemperatureF,Dew PointF,Humidity,Sea Level PressureIn,VisibilityMPH,Wind Direction,Wind SpeedMPH,Gust SpeedMPH,PrecipitationIn,Events,Conditions,WindDirDegrees,DateUTC
12:15 AM,66.2,66.2,100,30.18,10.0,Calm,Calm,-,N/A,,Light Drizzle,0,2013-07-31 04:15:00
12:35 AM,66.2,66.2,100,30.18,10.0,East,3.5,-,N/A,,Overcast,100,2013-07-31 04:35:00
12:55 AM,66.2,64.4,94,30.18,10.0,Calm,Calm,-,N/A,,Overcast,0,2013-07-31 04:55:00
1:15 AM,68.0,64.4,88,30.18,10.0,Calm,Calm,-,0.01,,Overcast,0,2013-07-31 05:15:00
1:35 AM,66.2,64.4,94,30.18,10.0,Calm,Calm,-,0.01,Rain,Rain,0,2013-07-31 05:35:00
1:55 AM,64.4,64.4,100,30.17,10.0,NE,3.5,-,0.02,Rain,Light Rain,40,2013-07-31 05:55:00
2:15 AM,64.4,62.6,94,30.17,10.0,Calm,Calm,-,N/A,,Overcast,0,2013-07-31 06:15:00
2:35 AM,64.4,62.6,94,30.17,10.0,Calm,Calm,-,N/A,,Overcast,0,2013-07-31 06:35:00
2:55 AM,62.6,62.6,100,30.16,10.0,Calm,Calm,-,N/A,,Overcast,0,2013-07-31 06:55:00
3:15 AM,64.4,62.6,94,30.17,10.0,Calm,Calm,-,0.01,Rain,Heavy Rain,0,2013-07-31 07:15:00
3:35 AM,64.4,62.6,94,30.17,10.0,Calm,Calm,-,0.03,,Light Drizzle,0,2013-07-31 07:35:00
3:55 AM,62.6,62.6,100,30.17,7.0,Calm,Calm,-,0.04,Rain,Light Rain,0,2013-07-31 07:55:00
4:15 AM,62.6,62.6,100,30.16,7.0,SE,4.6,-,0.01,,Heavy Drizzle,130,2013-07-31 08:15:00
4:35 AM,64.4,62.6,94,30.15,4.0,SE,3.5,-,0.02,,Overcast,130,2013-07-31 08:35:00
4:55 AM,64.4,64.4,100,30.15,10.0,SSE,4.6,-,0.02,,Overcast,150,2013-07-31 08:55:00
5:15 AM,64.4,64.4,100,30.14,10.0,South,4.6,-,N/A,,Overcast,190,2013-07-31 09:15:00
5:35 AM,64.4,64.4,100,30.14,10.0,South,4.6,-,N/A,,Overcast,180,2013-07-31 09:35:00
5:55 AM,64.4,64.4,100,30.14,10.0,South,4.6,-,N/A,Rain,Light Rain,180,2013-07-31 09:55:00
6:15 AM,64.4,64.4,100,30.14,10.0,SSE,3.5,-,N/A,,Overcast,150,2013-07-31 10:15:00
6:35 AM,64.4,64.4,100,30.13,10.0,Calm,Calm,-,N/A,,Overcast,0,2013-07-31 10:35:00
6:55 AM,64.4,64.4,100,30.13,10.0,SSE,3.5,-,N/A,,Overcast,150,2013-07-31 10:55:00
7:15 AM,64.4,64.4,100,30.13,10.0,Calm,Calm,-,N/A,,Overcast,0,2013-07-31 11:15:00
7:35 AM,64.4,64.4,100,30.13,10.0,East,4.6,-,N/A,,Drizzle,100,2013-07-31 11:35:00
7:55 AM,64.4,64.4,100,30.13,10.0,SE,3.5,-,N/A,,Overcast,130,2013-07-31 11:55:00
8:15 AM,64.4,64.4,100,30.12,10.0,SE,4.6,-,N/A,,Overcast,140,2013-07-31 12:15:00
8:35 AM,64.4,64.4,100,30.12,10.0,SE,3.5,-,0.01,,Overcast,140,2013-07-31 12:35:00
8:55 AM,66.2,64.4,94,30.13,10.0,SSE,3.5,-,0.01,,Overcast,160,2013-07-31 12:55:00
9:15 AM,66.2,64.4,94,30.13,10.0,SSE,4.6,-,N/A,,Overcast,160,2013-07-31 13:15:00
9:35 AM,64.4,64.4,100,30.13,10.0,South,3.5,-,N/A,,Heavy Drizzle,180,2013-07-31 13:35:00
9:55 AM,64.4,64.4,100,30.13,7.0,South,3.5,-,0.01,,Drizzle,180,2013-07-31 13:55:00
10:15 AM,64.4,64.4,100,30.13,10.0,South,3.5,-,0.01,Rain,Rain,190,2013-07-31 14:15:00
10:35 AM,66.2,64.4,94,30.13,10.0,South,3.5,-,0.01,,Drizzle,180,2013-07-31 14:35:00
10:55 AM,66.2,64.4,94,30.12,7.0,Calm,Calm,-,0.02,,Light Drizzle,0,2013-07-31 14:55:00
11:15 AM,66.2,64.4,94,30.12,7.0,South,3.5,-,N/A,,Overcast,170,2013-07-31 15:15:00
11:35 AM,66.2,64.4,94,30.11,10.0,Calm,Calm,-,N/A,,Overcast,0,2013-07-31 15:35:00
11:55 AM,66.2,66.2,100,30.11,10.0,Calm,Calm,-,N/A,,Overcast,0,2013-07-31 15:55:00
12:15 PM,66.2,66.2,100,30.10,10.0,ESE,4.6,-,N/A,,Overcast,120,2013-07-31 16:15:00
12:35 PM,66.2,66.2,100,30.10,10.0,ESE,3.5,-,N/A,Rain,Rain,120,2013-07-31 16:35:00
12:55 PM,68.0,66.2,94,30.10,10.0,Calm,Calm,-,0.01,,Overcast,0,2013-07-31 16:55:00
1:15 PM,66.2,66.2,100,30.09,7.0,Calm,Calm,-,0.01,,Light Drizzle,0,2013-07-31 17:15:00
1:35 PM,68.0,66.2,94,30.08,10.0,SE,3.5,-,0.01,,Overcast,140,2013-07-31 17:35:00
1:55 PM,68.0,66.2,94,30.08,7.0,SSE,4.6,-,0.01,,Overcast,150,2013-07-31 17:55:00
2:15 PM,68.0,66.2,94,30.07,10.0,SSE,4.6,-,N/A,,Overcast,150,2013-07-31 18:15:00
2:35 PM,68.0,68.0,100,30.06,10.0,SSE,3.5,-,N/A,,Overcast,150,2013-07-31 18:35:00
2:55 PM,68.0,68.0,100,30.06,10.0,Calm,Calm,-,N/A,,Overcast,0,2013-07-31 18:55:00
3:15 PM,68.0,68.0,100,30.05,10.0,Calm,Calm,-,N/A,,Overcast,0,2013-07-31 19:15:00
3:35 PM,69.8,68.0,94,30.05,10.0,SSE,4.6,-,N/A,,Overcast,150,2013-07-31 19:35:00
3:55 PM,69.8,68.0,94,30.04,10.0,Calm,Calm,-,N/A,,Overcast,0,2013-07-31 19:55:00
4:15 PM,69.8,68.0,94,30.04,10.0,Calm,Calm,-,N/A,,Overcast,0,2013-07-31 20:15:00
4:35 PM,69.8,68.0,94,30.03,10.0,Calm,Calm,-,N/A,,Overcast,0,2013-07-31 20:35:00
4:55 PM,69.8,68.0,94,30.03,10.0,ESE,3.5,-,N/A,,Overcast,120,2013-07-31 20:55:00
5:15 PM,69.8,68.0,94,30.02,10.0,Calm,Calm,-,N/A,,Overcast,0,2013-07-31 21:15:00
5:35 PM,69.8,68.0,94,30.02,10.0,Calm,Calm,-,N/A,,Overcast,0,2013-07-31 21:35:00
5:55 PM,69.8,68.0,94,30.01,10.0,Calm,Calm,-,N/A,,Overcast,0,2013-07-31 21:55:00
6:15 PM,69.8,68.0,94,30.00,10.0,Calm,Calm,-,N/A,,Overcast,0,2013-07-31 22:15:00
6:35 PM,69.8,68.0,94,29.99,10.0,Calm,Calm,-,N/A,,Overcast,0,2013-07-31 22:35:00
6:55 PM,69.8,68.0,94,29.99,10.0,Calm,Calm,-,N/A,,Overcast,0,2013-07-31 22:55:00
7:15 PM,69.8,68.0,94,29.99,4.0,Calm,Calm,-,N/A,Rain,Rain,0,2013-07-31 23:15:00
7:35 PM,68.0,68.0,100,30.00,7.0,Calm,Calm,-,N/A,,Drizzle,0,2013-07-31 23:35:00
7:55 PM,68.0,68.0,100,30.01,7.0,NNE,4.6,-,0.01,,Heavy Drizzle,30,2013-07-31 23:55:00
8:15 PM,68.0,68.0,100,30.01,5.0,NNE,3.5,-,0.01,,Drizzle,30,2013-08-01 00:15:00
8:35 PM,68.0,68.0,100,30.02,5.0,Calm,Calm,-,0.01,,Drizzle,0,2013-08-01 00:35:00
8:55 PM,68.0,68.0,100,30.02,7.0,Calm,Calm,-,0.02,,Drizzle,0,2013-08-01 00:55:00
9:15 PM,68.0,68.0,100,30.02,7.0,Calm,Calm,-,0.02,,Heavy Drizzle,0,2013-08-01 01:15:00
9:35 PM,68.0,68.0,100,30.02,7.0,Calm,Calm,-,0.04,Rain,Light Rain,0,2013-08-01 01:35:00
9:55 PM,68.0,68.0,100,30.02,10.0,NNE,3.5,-,0.05,,Light Drizzle,30,2013-08-01 01:55:00
10:15 PM,68.0,68.0,100,30.03,10.0,Calm,Calm,-,N/A,,Overcast,0,2013-08-01 02:15:00
10:35 PM,68.0,68.0,100,30.02,10.0,Calm,Calm,-,N/A,,Overcast,0,2013-08-01 02:35:00
10:55 PM,68.0,68.0,100,30.02,10.0,Calm,Calm,-,N/A,,Overcast,0,2013-08-01 02:55:00
11:15 PM,68.0,68.0,100,30.02,10.0,Calm,Calm,-,N/A,,Overcast,0,2013-08-01 03:15:00
11:35 PM,68.0,68.0,100,30.02,10.0,South,3.5,-,N/A,,Overcast,180,2013-08-01 03:35:00
11:55 PM,68.0,68.0,100,30.02,10.0,Calm,Calm,-,N/A,,Overcast,0,2013-08-01 03:55:00